Time,TemperatureF,DewpointF,PressureIn,WindDirection,WindDirectionDegrees,WindSpeedMPH,WindSpeedGustMPH,Humidity,HourlyPrecipIn,Conditions,Clouds,dailyrainin,SoftwareType,DateUTC
2013-06-25 00:33:00,70.0,68.0,29.92,West,270,4.0,7.0,93,-99.99,,,-99.99,,2013-06-25 04:33:00,
2013-06-25 00:42:00,70.0,68.0,29.92,West,270,4.0,7.0,93,-99.99,,,-99.99,,2013-06-25 04:42:00,
2013-06-25 00:50:00,68.0,67.0,29.91,SW,220,11.0,13.0,95,-99.99,,,-99.99,,2013-06-25 04:50:00,
2013-06-25 01:32:00,68.0,67.0,29.91,SW,220,11.0,13.0,95,-99.99,,,-99.99,,2013-06-25 05:32:00,
2013-06-25 01:44:00,68.0,67.0,29.91,SW,220,11.0,13.0,95,-99.99,,,-99.99,,2013-06-25 05:44:00,
2013-06-25 02:50:00,69.0,67.0,29.91,West,260,11.0,13.0,92,-99.99,,,-99.99,,2013-06-25 06:50:00,
2013-06-25 03:33:00,69.0,67.0,29.91,West,260,11.0,13.0,92,-99.99,,,-99.99,,2013-06-25 07:33:00,
2013-06-25 03:43:00,69.0,67.0,29.91,West,260,11.0,13.0,92,-99.99,,,-99.99,,2013-06-25 07:43:00,
2013-06-25 03:50:00,69.0,66.0,29.91,West,260,9.0,11.0,92,-99.99,,,-99.99,,2013-06-25 07:50:00,
2013-06-25 04:33:00,69.0,66.0,29.91,West,260,9.0,11.0,92,-99.99,,,-99.99,,2013-06-25 08:33:00,
2013-06-25 04:43:00,69.0,66.0,29.91,West,260,9.0,11.0,92,-99.99,,,-99.99,,2013-06-25 08:43:00,
2013-06-25 04:50:00,68.0,65.0,29.91,West,260,9.0,11.0,90,-99.99,,,-99.99,,2013-06-25 08:50:00,
2013-06-25 05:33:00,68.0,65.0,29.91,West,260,9.0,11.0,90,-99.99,,,-99.99,,2013-06-25 09:33:00,
2013-06-25 05:43:00,68.0,65.0,29.91,West,260,9.0,11.0,90,-99.99,,,-99.99,,2013-06-25 09:43:00,
2013-06-25 07:50:00,68.0,66.0,29.92,WSW,240,11.0,11.0,91,-99.99,,,-99.99,,2013-06-25 11:50:00,
2013-06-25 08:33:00,68.0,66.0,29.92,WSW,240,11.0,11.0,91,-99.99,,,-99.99,,2013-06-25 12:33:00,
2013-06-25 08:43:00,68.0,66.0,29.92,WSW,240,11.0,11.0,91,-99.99,,,-99.99,,2013-06-25 12:43:00,
2013-06-25 08:50:00,68.0,66.0,29.92,SW,230,11.0,13.0,92,-99.99,,,-99.99,,2013-06-25 12:50:00,
2013-06-25 09:34:00,68.0,66.0,29.92,SW,230,11.0,13.0,92,-99.99,,,-99.99,,2013-06-25 13:34:00,
2013-06-25 09:42:00,68.0,66.0,29.92,SW,230,11.0,13.0,92,-99.99,,,-99.99,,2013-06-25 13:42:00,
2013-06-25 09:50:00,69.0,66.0,29.90,WSW,240,13.0,16.0,92,-99.99,,,-99.99,,2013-06-25 13:50:00,
2013-06-25 10:34:00,69.0,66.0,29.90,WSW,240,13.0,16.0,92,-99.99,,,-99.99,,2013-06-25 14:34:00,
2013-06-25 10:42:00,69.0,66.0,29.90,WSW,240,13.0,16.0,92,-99.99,,,-99.99,,2013-06-25 14:42:00,
2013-06-25 10:50:00,68.0,66.0,29.89,SW,230,18.0,20.0,92,-99.99,,,-99.99,,2013-06-25 14:50:00,
2013-06-25 11:32:00,68.0,66.0,29.89,SW,230,18.0,20.0,92,-99.99,,,-99.99,,2013-06-25 15:32:00,
2013-06-25 11:43:00,68.0,66.0,29.89,SW,230,18.0,20.0,92,-99.99,,,-99.99,,2013-06-25 15:43:00,
2013-06-25 11:50:00,68.0,66.0,29.90,WSW,240,18.0,20.0,93,-99.99,,,-99.99,,2013-06-25 15:50:00,
2013-06-25 12:34:00,68.0,66.0,29.90,WSW,240,18.0,20.0,93,-99.99,,,-99.99,,2013-06-25 16:34:00,
2013-06-25 12:43:00,68.0,66.0,29.90,WSW,240,18.0,20.0,93,-99.99,,,-99.99,,2013-06-25 16:43:00,
2013-06-25 14:50:00,68.0,67.0,29.86,SW,220,16.0,20.0,94,-99.99,,,-99.99,,2013-06-25 18:50:00,
2013-06-25 15:33:00,68.0,67.0,29.86,SW,220,16.0,20.0,94,-99.99,,,-99.99,,2013-06-25 19:33:00,
2013-06-25 15:44:00,68.0,67.0,29.86,SW,220,16.0,20.0,94,-99.99,,,-99.99,,2013-06-25 19:44:00,
2013-06-25 15:50:00,68.0,67.0,29.84,SW,220,18.0,22.0,96,-99.99,,,-99.99,,2013-06-25 19:50:00,
2013-06-25 16:33:00,68.0,67.0,29.84,SW,220,18.0,22.0,96,-99.99,,,-99.99,,2013-06-25 20:33:00,
2013-06-25 16:42:00,68.0,67.0,29.84,SW,220,18.0,22.0,96,-99.99,,,-99.99,,2013-06-25 20:42:00,
2013-06-25 17:50:00,67.0,66.0,29.80,SW,220,16.0,20.0,96,-99.99,,,-99.99,,2013-06-25 21:50:00,
2013-06-25 18:33:00,67.0,66.0,29.80,SW,220,16.0,20.0,96,-99.99,,,-99.99,,2013-06-25 22:33:00,
2013-06-25 18:42:00,67.0,66.0,29.80,SW,220,16.0,20.0,96,-99.99,,,-99.99,,2013-06-25 22:42:00,
2013-06-25 18:50:00,67.0,66.0,29.80,SW,230,16.0,18.0,96,-99.99,,,-99.99,,2013-06-25 22:50:00,
2013-06-25 19:22:00,67.0,66.0,29.80,SW,230,16.0,18.0,96,-99.99,,,-99.99,,2013-06-25 23:22:00,
2013-06-25 19:34:00,67.0,66.0,29.80,SW,230,16.0,18.0,96,-99.99,,,-99.99,,2013-06-25 23:34:00,
2013-06-25 19:43:00,67.0,66.0,29.80,SW,230,16.0,18.0,96,-99.99,,,-99.99,,2013-06-25 23:43:00,
2013-06-25 20:50:00,67.0,67.0,29.78,SW,220,18.0,20.0,100,-99.99,,,-99.99,,2013-06-26 00:50:00,
2013-06-25 21:32:00,67.0,67.0,29.78,SW,220,18.0,20.0,100,-99.99,,,-99.99,,2013-06-26 01:32:00,
2013-06-25 21:43:00,67.0,67.0,29.78,SW,220,18.0,20.0,100,-99.99,,,-99.99,,2013-06-26 01:43:00,
2013-06-25 21:50:00,67.0,67.0,29.78,SW,220,18.0,22.0,100,-99.99,,,-99.99,,2013-06-26 01:50:00,
2013-06-25 22:34:00,67.0,67.0,29.78,SW,220,18.0,22.0,100,-99.99,,,-99.99,,2013-06-26 02:34:00,
2013-06-25 22:43:00,67.0,67.0,29.78,SW,220,18.0,22.0,100,-99.99,,,-99.99,,2013-06-26 02:43:00,
2013-06-25 22:50:00,68.0,67.0,29.77,SW,220,18.0,20.0,98,-99.99,,,-99.99,,2013-06-26 02:50:00,
2013-06-25 23:33:00,68.0,67.0,29.77,SW,220,18.0,20.0,98,-99.99,,,-99.99,,2013-06-26 03:33:00,
2013-06-25 23:43:00,68.0,67.0,29.77,SW,220,18.0,20.0,98,-99.99,,,-99.99,,2013-06-26 03:43:00,
2013-06-25 23:50:00,68.0,68.0,29.78,WSW,250,16.0,18.0,99,-99.99,,,-99.99,,2013-06-26 03:50:00,